Weather History for Elizabethton, TN

Change the Weather History Date:

Saturday, November 19, 2011

  Actual Average (KTRI) Record (KTRI)
Temperature  
Mean Temperature 43 °F 46 °F  
Max Temperature 62 °F 57 °F 78 °F (1985)
Min Temperature 24 °F 34 °F 17 °F (1951)
Degree Days  
Heating Degree Days 22 20  
Month to date heating degree days 313  
Since 1 July heating degree days 648  
Cooling Degree Days 0 0  
Month to date cooling degree days 0  
Year to date cooling degree days 980  
Moisture  
Dew Point 29 °F    
Average Humidity 59    
Maximum Humidity 86    
Minimum Humidity 39    
Precipitation  
Precipitation 0.00 in 0.11 in 2.27 in (2003)
Month to date precipitation 1.85  
Year to date precipitation 36.39  
Snow  
Snow 0.00 in 0.00 in - ()
Month to date snowfall 0.1  
Since 1 July snowfall 0.2  
Since 1 September snowfall 0.2  
Snow Depth -    
Sea Level Pressure  
Sea Level Pressure 30.30 in    
Wind  
Wind Speed 5 mph (East)    
Max Wind Speed 10 mph    
Max Gust Speed -    
Visibility 10 miles    
Events      
T = Trace of Precipitation, MM = Missing Value Source: NWS Daily Summary

Daily Weather History Graph

Daily Weather History Graph

Search for Another Location

Airport:

Trip Planner

Search our weather history database for the weather conditions in past years. The results will help you decide how hot, cold, wet, or windy it might be!

Date:

Astronomy

Nov. 19, 2011 Rise Set
Actual Time 7:09 AM EST 5:18 PM EST
Civil Twilight 6:42 AM EST 5:45 PM EST
Nautical Twilight 6:10 AM EST 6:16 PM EST
Astronomical Twilight 5:40 AM EST 6:47 PM EST
Moon 12:39 AM EST (11/19) 1:25 PM EST (11/19)
Length of Visible Light 11h 03m
Length of Day
10h 08m
Last Quarter, 38% of the Moon is Illuminated
Nov 19
Last Quarter
Nov 25
New
Dec 2
First Quarter
Dec 10
Full
Dec 17
Last Quarter

Hourly Weather History & Observations

Time (EST) Temp. Windchill Dew Point Humidity Pressure Visibility Wind Dir Wind Speed Gust Speed Precip Events Conditions
12:15 AM 32.0 °F 25.6 °F 19.4 °F 60% 30.31 in 10.0 mi ENE 6.9 mph - N/A   Clear
12:35 AM 33.8 °F 28.6 °F 19.4 °F 56% 30.31 in 10.0 mi ENE 5.8 mph - N/A   Clear
12:55 AM 32.0 °F 27.5 °F 19.4 °F 60% 30.31 in 10.0 mi NE 4.6 mph - N/A   Clear
1:15 AM 32.0 °F 26.4 °F 19.4 °F 60% 30.31 in 10.0 mi ENE 5.8 mph - N/A   Clear
1:35 AM 30.2 °F 24.3 °F 19.4 °F 64% 30.31 in 10.0 mi ENE 5.8 mph - N/A   Clear
1:55 AM 30.2 °F 24.3 °F 21.2 °F 69% 30.31 in 10.0 mi NE 5.8 mph - N/A   Clear
2:15 AM 30.2 °F 25.4 °F 21.2 °F 69% 30.30 in 10.0 mi ENE 4.6 mph - N/A   Clear
2:35 AM 28.4 °F 24.6 °F 21.2 °F 74% 30.31 in 10.0 mi NE 3.5 mph - N/A   Clear
3:15 AM 28.4 °F 23.3 °F 21.2 °F 74% 30.31 in 10.0 mi ENE 4.6 mph - N/A   Clear
3:35 AM 30.2 °F - 19.4 °F 64% 30.31 in 10.0 mi Calm Calm - N/A   Clear
3:55 AM 28.4 °F - 19.4 °F 69% 30.30 in 10.0 mi Calm Calm - N/A   Clear
4:15 AM 26.6 °F - 21.2 °F 80% 30.31 in 10.0 mi Calm Calm - N/A   Clear
4:35 AM 26.6 °F - 21.2 °F 80% 30.32 in 10.0 mi Calm Calm - N/A   Clear
4:55 AM 26.6 °F - 21.2 °F 80% 30.33 in 10.0 mi Calm Calm - N/A   Clear
5:15 AM 24.8 °F - 21.2 °F 86% 30.33 in 10.0 mi Calm Calm - N/A   Clear
5:35 AM 24.8 °F - 19.4 °F 80% 30.34 in 10.0 mi Calm Calm - N/A   Clear
5:55 AM 26.6 °F 21.2 °F 19.4 °F 74% 30.35 in 10.0 mi NE 4.6 mph - N/A   Clear
6:15 AM 28.4 °F 23.3 °F 17.6 °F 64% 30.35 in 10.0 mi ENE 4.6 mph - N/A   Clear
6:35 AM 28.4 °F - 19.4 °F 69% 30.36 in 10.0 mi Calm Calm - N/A   Clear
7:15 AM 26.6 °F 22.6 °F 19.4 °F 74% 30.37 in 10.0 mi East 3.5 mph - N/A   Clear
8:15 AM 32.0 °F 26.4 °F 21.2 °F 64% 30.39 in 10.0 mi ENE 5.8 mph - N/A   Clear
8:35 AM 33.8 °F 29.6 °F 21.2 °F 60% 30.39 in 10.0 mi ENE 4.6 mph - N/A   Clear
8:55 AM 35.6 °F 29.9 °F 21.2 °F 56% 30.39 in 10.0 mi ENE 6.9 mph - N/A   Clear
9:15 AM 37.4 °F 32.8 °F 19.4 °F 48% 30.38 in 10.0 mi ENE 5.8 mph - N/A   Clear
9:35 AM 39.2 °F 35.0 °F 21.2 °F 49% 30.38 in 10.0 mi East 5.8 mph - N/A   Clear
9:55 AM 42.8 °F 39.3 °F 26.6 °F 53% 30.38 in 10.0 mi East 5.8 mph - N/A   Clear
10:15 AM 44.6 °F 41.4 °F 26.6 °F 49% 30.37 in 10.0 mi ESE 5.8 mph - N/A   Clear
10:35 AM 46.4 °F 43.5 °F 26.6 °F 46% 30.36 in 10.0 mi ESE 5.8 mph - N/A   Clear
10:55 AM 50.0 °F - 28.4 °F 43% 30.35 in 10.0 mi East 3.5 mph - N/A   Clear
11:15 AM 51.8 °F - 30.2 °F 44% 30.34 in 10.0 mi ESE 5.8 mph - N/A   Clear
11:55 AM 55.4 °F - 33.8 °F 44% 30.32 in 10.0 mi East 3.5 mph - N/A   Clear
12:15 PM 57.2 °F - 33.8 °F 41% 30.30 in 10.0 mi ENE 4.6 mph - N/A   Clear
12:35 PM 59.0 °F - 35.6 °F 42% 30.29 in 10.0 mi ENE 4.6 mph - N/A   Clear
12:55 PM 60.8 °F - 35.6 °F 39% 30.28 in 10.0 mi Calm Calm - N/A   Clear
1:15 PM 60.8 °F - 37.4 °F 42% 30.27 in 10.0 mi Variable 4.6 mph - N/A   Clear
1:35 PM 62.6 °F - 39.2 °F 42% 30.26 in 10.0 mi WSW 10.4 mph - N/A   Clear
1:55 PM 62.6 °F - 37.4 °F 39% 30.26 in 10.0 mi WSW 10.4 mph - N/A   Clear
2:35 PM 62.6 °F - 37.4 °F 39% 30.24 in 10.0 mi SW 6.9 mph - N/A   Clear
2:55 PM 62.6 °F - 37.4 °F 39% 30.23 in 10.0 mi SW 8.1 mph - N/A   Clear
3:15 PM 62.6 °F - 39.2 °F 42% 30.23 in 10.0 mi SW 6.9 mph - N/A   Clear
3:35 PM 62.6 °F - 39.2 °F 42% 30.23 in 10.0 mi South 8.1 mph - N/A   Clear
4:15 PM 60.8 °F - 39.2 °F 45% 30.24 in 10.0 mi South 6.9 mph - N/A   Clear
4:35 PM 60.8 °F - 37.4 °F 42% 30.24 in 10.0 mi SSE 5.8 mph - N/A   Clear
4:55 PM 60.8 °F - 37.4 °F 42% 30.23 in 10.0 mi Variable 5.8 mph - N/A   Clear
5:15 PM 59.0 °F - 37.4 °F 45% 30.23 in 10.0 mi South 6.9 mph - N/A   Clear
5:35 PM 53.6 °F - 39.2 °F 58% 30.24 in 10.0 mi Calm Calm - N/A   Clear
5:55 PM 53.6 °F - 39.2 °F 58% 30.25 in 10.0 mi Calm Calm - N/A   Clear
6:15 PM 51.8 °F - 37.4 °F 58% 30.26 in 10.0 mi ENE 4.6 mph - N/A   Clear
6:35 PM 51.8 °F - 37.4 °F 58% 30.26 in 10.0 mi ENE 4.6 mph - N/A   Clear
6:55 PM 51.8 °F - 37.4 °F 58% 30.27 in 10.0 mi ENE 4.6 mph - N/A   Clear
7:15 PM 48.2 °F - 37.4 °F 66% 30.27 in 10.0 mi NE 4.6 mph - N/A   Clear
7:35 PM 48.2 °F - 37.4 °F 66% 30.28 in 10.0 mi ENE 4.6 mph - N/A   Clear
7:55 PM 48.2 °F - 37.4 °F 66% 30.28 in 10.0 mi NE 5.8 mph - N/A   Clear
8:15 PM 48.2 °F - 37.4 °F 66% 30.29 in 10.0 mi Variable 5.8 mph - N/A   Clear
8:35 PM 48.2 °F - 37.4 °F 66% 30.30 in 10.0 mi East 4.6 mph - N/A   Clear
8:55 PM 46.4 °F 44.3 °F 39.2 °F 76% 30.30 in 10.0 mi East 4.6 mph - N/A   Scattered Clouds
9:15 PM 48.2 °F - 39.2 °F 71% 30.30 in 10.0 mi East 6.9 mph - N/A   Mostly Cloudy
9:35 PM 46.4 °F 42.9 °F 39.2 °F 76% 30.29 in 10.0 mi East 6.9 mph - N/A   Overcast
9:55 PM 46.4 °F 43.5 °F 37.4 °F 71% 30.29 in 10.0 mi ENE 5.8 mph - N/A   Mostly Cloudy
10:15 PM 46.4 °F 44.3 °F 39.2 °F 76% 30.29 in 10.0 mi NE 4.6 mph - N/A   Scattered Clouds
10:35 PM 46.4 °F 42.9 °F 39.2 °F 76% 30.29 in 10.0 mi ENE 6.9 mph - N/A   Mostly Cloudy
10:55 PM 46.4 °F 42.9 °F 39.2 °F 76% 30.29 in 10.0 mi ENE 6.9 mph - N/A   Overcast
11:35 PM 46.4 °F 44.3 °F 39.2 °F 76% 30.28 in 10.0 mi NE 4.6 mph - N/A   Overcast
11:55 PM 46.4 °F - 39.2 °F 76% 30.28 in 10.0 mi Calm Calm - N/A   Overcast